Regional Weather Roundup
Issued by NWS

Home | Current Version | Previous Version | Text Only | Print | Product List | Glossary On
Versions: 1 2 3 4 5 6 7 8 9 10 11 12 13 14 15 16 17 18 19 20 21 22 23 24 25 26 27 28 29 30 31 32 33 34 35 36 37 38 39 40 41 42 43 44 45 46 47 48 49 50
000
ASUS43 KOAX 240802
RWRNE

WEATHER ROUNDUP FOR NEBRASKA
NATIONAL WEATHER SERVICE OMAHA NE
200 AM CST TUE JAN 24 2017

NOTES: SATELLITE DATA IS BEING USED TO AUGMENT CLOUD COVER ABOVE
       12000 FEET.
       "FAIR" INDICATES FEW OR NO CLOUDS BELOW 12,000 FEET WITH NO
       SIGNIFICANT WEATHER AND/OR OBSTRUCTIONS TO VISIBILITY.

  * THESE STATIONS DO NOT REPORT WEATHER SUCH AS RAIN...SNOW OR FOG.

NEZ001>004-019>022-054>056-240900-
NEBRASKA PANHANDLE

CITY           SKY/WX    TMP DP  RH WIND       PRES   REMARKS
SCOTTSBLUFF    SNOW      27  24  89 NE10      29.59F VSB 1/2 WCI  17
ALLIANCE       FOG       26  25  96 N12       29.61R VSB 1   WCI  16
CHADRON        LGT SNOW  24  22  91 N13       29.70R VSB 1   WCI  12
KIMBALL        LGT SNOW  33  33 100 NE5       29.54S WCI  29
SIDNEY         CLOUDY    33  30  88 NW16      29.56R WCI  23
$$

NEZ057>060-069>072-079>082-240900-
SOUTHWEST NEBRASKA

CITY           SKY/WX    TMP DP  RH WIND       PRES   REMARKS
NORTH PLATTE   CLOUDY    33  31  92 E14       29.58F WCI  23
IMPERIAL       CLEAR     32  29  88 E14       29.49F WCI  22
LEXINGTON      CLOUDY    32  31  97 E14       29.61F FOG     WCI  22
MCCOOK         CLOUDY    33  31  92 NE14      29.53F WCI  23
OGALLALA       CLOUDY    33  31  94 NE14      29.54S WCI  23
$$

NEZ005>010-023>029-035>040-094-240900-
NORTH CENTRAL NEBRASKA

CITY           SKY/WX    TMP DP  RH WIND       PRES   REMARKS
VALENTINE      CLOUDY    30  28  92 S6        29.67S FOG     WCI  24
AINSWORTH      FOG       31  31 100 SE6       29.66S VSB 3/4 WCI  25
BROKEN BOW     FOG       31  31 100 E15G26    29.62F VSB 1/4 WCI  20
O`NEILL        CLOUDY    31  31  99 SE10      29.71F FOG     WCI  23
ORD            FOG       31  29  92 SE12      29.67F VSB 1/4 WCI  22
THEDFORD       FOG       31  31  99 E6        29.62F VSB 1   WCI  26
$$

NEZ041-046>049-061>064-073>077-083>087-240900-
SOUTH CENTRAL NEBRASKA

CITY           SKY/WX    TMP DP  RH WIND       PRES   REMARKS
GRAND ISLAND   CLOUDY    32  32 100 E13       29.68F FOG     WCI  22
AURORA         CLOUDY    31  31 100 E15       29.69F FOG     WCI  21
HASTINGS       CLOUDY    33  31  92 E12       29.65F FOG     WCI  24
HEBRON         PTCLDY    32  32 100 E8        29.67F FOG     WCI  25
HOLDREGE       CLOUDY    32  32  99 E14       29.60S FOG     WCI  22
KEARNEY *      CLOUDY    32  30  93 E13       29.63F VSB 1   WCI  22
YORK           MOCLDY    32  32 100 E13       29.71F FOG     WCI  22
$$

NEZ011>018-030>034-042>045-240900-
NORTHEAST NEBRASKA

CITY           SKY/WX    TMP DP  RH WIND       PRES   REMARKS
NORFOLK        CLOUDY    30  28  92 E8        29.75S FOG     WCI  22
ALBION         FOG       32  30  93 SE10      29.72F VSB 3/4 WCI  24
BLAIR          CLOUDY    31  30  96 E8        29.79R FOG     WCI  23
FREMONT        CLOUDY    31  31 100 E8        29.80R FOG     WCI  23
TEKAMAH        CLOUDY    31  28  89 E9        29.82S WCI  23
WAYNE          CLOUDY    31  30  98 SE8       29.78S FOG     WCI  23
$$

NEZ050>053-065>068-078-088>093-240900-
SOUTHEAST NEBRASKA

CITY           SKY/WX    TMP DP  RH WIND       PRES   REMARKS
LINCOLN        CLOUDY    31  29  92 E8        29.78S WCI  23
OMAHA EPPLEY   CLOUDY    31  26  82 E10       29.82S WCI  22
BEATRICE       CLEAR     31  30  96 E7        29.73F FOG     WCI  24
FALLS CITY     CLEAR     29  27  92 E10       29.78S WCI  20
NEBRASKA CITY  PTCLDY    29  29 100 E8        29.79S FOG     WCI  21
PLATTSMOUTH    CLOUDY    30  28  90 E10       29.79S FOG     WCI  21
$$

NEZ044-045-051>053-067-240900-
OMAHA AREA

CITY           SKY/WX    TMP DP  RH WIND       PRES   REMARKS
OMAHA EPPLEY   CLOUDY    31  26  82 E10       29.82S WCI  22
BLAIR          CLOUDY    31  30  96 E8        29.79R FOG     WCI  23
FREMONT        CLOUDY    31  31 100 E8        29.80R FOG     WCI  23
MILLARD        CLOUDY    32  31  95 E8        29.81R FOG     WCI  25
OFFUTT AFB     CLOUDY    30  30 100 E8        29.81R WCI  23
PLATTSMOUTH    CLOUDY    30  28  90 E10       29.79S FOG     WCI  21
WAHOO          CLOUDY    30  29  95 E8        29.79S FOG     WCI  23
$$




USA.gov is the U.S. government's official web portal to all federal, state and local government web resources and services.